CW9739 Weather Reports


time (UTC)temp
F
wind
direction
speed
knots
gust
knots
rain 1hr
in
rain 24hr
in
rain mn
in
humidity
%
barometer
mb
20260510234631 41 241 3.5 5.2 0.00 0.00 0.00 71 1013.1
20260510233620 42 248 2.6 5.2 0.00 0.00 0.00 71 1013.3
20260510232623 42 215 2.6 3.5 0.00 0.00 0.00 70 1013.5
20260510231615 42 203 2.6 3.5 0.00 0.00 0.00 70 1013.6
20260510230546 42 196 2.6 5.2 0.00 0.00 0.00 69 1013.8
20260510223303 43 228 3.5 4.3 0.00 0.00 0.00 68 1014.3
20260510221134 44 214 2.6 3.5 0.00 0.00 0.00 65 1014.4
20260510220105 44 200 2.6 3.5 0.00 0.00 0.00 64 1014.5
20260510215111 45 203 2.6 3.5 0.00 0.00 0.00 64 1014.5
20260510213036 45 213 2.6 4.3 0.00 0.00 0.00 62 1014.5
20260510212018 46 222 2.6 3.5 0.00 0.00 0.00 61 1014.5
20260510210947 46 215 2.6 4.3 0.00 0.00 0.00 60 1014.6
20260510205924 46 213 2.6 3.5 0.00 0.00 0.00 60 1014.6
20260510204937 47 209 2.6 4.3 0.00 0.00 0.00 59 1014.8
20260510203935 47 197 3.5 4.3 0.00 0.00 0.00 59 1014.8
20260510202928 48 204 2.6 4.3 0.00 0.00 0.00 59 1014.8
20260510201953 48 215 2.6 3.5 0.00 0.00 0.00 58 1014.7
20260510200935 49 205 2.6 3.5 0.00 0.00 0.00 57 1014.9
20260510195954 49 207 3.5 3.5 0.00 0.00 0.00 56 1014.9
20260510194933 49 210 2.6 3.5 0.00 0.00 0.00 55 1014.9
20260510193920 50 198 2.6 4.3 0.00 0.00 0.00 54 1015.0
20260510191812 51 201 2.6 3.5 0.00 0.00 0.00 53 1015.2
20260510190810 51 174 2.6 4.3 0.00 0.00 0.00 53 1015.3
20260510185750 52 208 2.6 7.0 0.00 0.00 0.00 53 1015.2
20260510184752 52 180 2.6 7.0 0.00 0.00 0.00 52 1015.3
20260510182654 53 218 2.6 5.2 0.00 0.00 0.00 53 1015.4
20260510181635 53 217 2.6 6.1 0.00 0.00 0.00 52 1015.7
20260510180655 53 200 3.5 6.1 0.00 0.00 0.00 51 1015.4
20260510175650 54 183 3.5 5.2 0.00 0.00 0.00 51 1015.5
20260510174702 54 215 2.6 6.1 0.00 0.00 0.00 50 1015.5
20260510172518 56 142 2.6 7.8 0.00 0.00 0.00 46 1015.5
20260510170307 58 215 2.6 7.8 0.00 0.00 0.00 45 1015.6
20260510165328 58 150 2.6 7.8 0.00 0.00 0.00 46 1015.7
20260510164342 58 142 2.6 7.0 0.00 0.00 0.00 43 1015.9
20260510163352 58 171 3.5 7.0 0.00 0.00 0.00 45 1015.9
20260510162412 59 155 2.6 11.3 0.00 0.00 0.00 43 1016.1
20260510160308 57 138 2.6 7.0 0.00 0.00 0.00 47 1016.5
20260510154137 57 359 2.6 6.1 0.00 0.00 0.00 46 1016.7
20260510153125 58 30 2.6 8.7 0.00 0.00 0.00 45 1016.8
20260510152141 59 69 3.5 8.7 0.00 0.00 0.00 44 1016.7
20260510151125 58 120 3.5 7.0 0.00 0.00 0.00 46 1016.9
20260510150113 58 1 2.6 4.3 0.00 0.00 0.00 45 1016.9
20260510140144 59 166 4.3 7.0 0.00 0.00 0.00 48 1017.6
20260510135133 59 130 3.5 10.4 0.00 0.00 0.00 50 1017.7
20260510134143 59 99 3.5 11.3 0.00 0.00 0.00 47 1017.8
20260510133203 60 185 3.5 11.3 0.00 0.00 0.00 49 1017.7
20260510132131 59 152 3.5 7.8 0.00 0.00 0.00 48 1017.9
20260510131154 61 153 3.5 7.8 0.00 0.00 0.00 46 1017.9
20260510125045 62 112 4.3 9.6 0.00 0.00 0.00 46 1018.0
20260510124103 61 150 4.3 9.6 0.00 0.00 0.00 46 1018.2
20260510123123 60 172 4.3 9.6 0.00 0.00 0.00 51 1018.2
20260510122115 59 137 3.5 8.7 0.00 0.00 0.00 50 1018.4
20260510121114 58 155 3.5 7.8 0.00 0.00 0.00 53 1018.4
20260510120104 55 181 3.5 7.8 0.00 0.00 0.00 54 1018.8
20260510115128 56 71 3.5 7.8 0.00 0.00 0.00 52 1018.7
20260510114135 56 79 3.5 7.0 0.00 0.00 0.00 51 1018.9
20260510113108 55 196 3.5 7.8 0.00 0.00 0.00 55 1019.0
20260510112051 56 92 7.8 7.8 0.00 0.00 0.00 57 1019.2
20260510111050 56 152 4.3 7.8 0.00 0.00 0.00 55 1019.1
20260510110111 55 199 4.3 9.6 0.00 0.00 0.00 58 1019.3
20260510105113 54 137 3.5 11.3 0.00 0.00 0.00 61 1019.4
20260510104101 53 122 3.5 11.3 0.00 0.00 0.00 62 1019.6
20260510103027 53 135 3.5 9.6 0.00 0.00 0.00 62 1019.6
20260510102047 52 210 3.5 7.0 0.00 0.00 0.00 63 1019.6
20260510101044 52 132 3.5 7.0 0.00 0.00 0.00 64 1019.7
20260510100052 51 135 3.5 8.7 0.00 0.00 0.00 66 1019.8
20260510095047 51 152 3.5 9.6 0.00 0.00 0.00 67 1019.9
20260510094014 50 214 2.6 6.1 0.00 0.00 0.00 71 1020.1
20260510093022 50 139 3.5 7.0 0.00 0.00 0.00 70 1020.1
20260510092041 49 148 3.5 7.0 0.00 0.00 0.00 71 1020.3
20260510091041 49 161 3.5 7.0 0.00 0.00 0.00 72 1020.2
20260510090042 49 180 3.5 8.7 0.00 0.00 0.00 73 1020.3
20260510083922 48 221 3.5 7.8 0.00 0.00 0.00 74 1020.4
20260510082946 48 193 3.5 7.8 0.00 0.00 0.00 74 1020.4
20260510081959 48 139 3.5 7.8 0.00 0.00 0.00 74 1020.3
20260510080938 47 123 4.3 8.7 0.00 0.00 0.00 75 1020.4
20260510075926 47 148 3.5 9.6 0.00 0.00 0.00 75 1020.3
20260510074903 47 38 4.3 8.7 0.00 0.00 0.00 75 1020.3
20260510073836 47 160 3.5 9.6 0.00 0.00 0.00 76 1020.5
20260510072812 47 86 4.3 9.6 0.00 0.00 0.00 76 1020.6
20260510071807 46 157 3.5 7.8 0.00 0.00 0.00 78 1020.4
20260510070736 46 1 3.5 8.7 0.00 0.00 0.00 79 1020.4
20260510065746 46 100 3.5 10.4 0.00 0.00 0.00 79 1020.4
20260510063617 46 81 4.3 8.7 0.00 0.00 0.00 79 1020.1
20260510062622 46 49 3.5 9.6 0.00 0.00 0.00 79 1020.3
20260510061635 46 126 3.5 10.4 0.00 0.00 0.00 80 1020.3
20260510060614 45 104 4.3 10.4 0.00 0.00 0.00 80 1020.2
20260510055544 45 109 3.5 8.7 0.00 0.00 0.00 81 1020.1
20260510054528 45 353 2.6 7.0 0.00 0.00 0.00 82 1020.1
20260510051151 46 50 2.6 8.7 0.00 0.00 0.00 83 1020.2
20260510050145 46 157 3.5 9.6 0.00 0.00 0.00 83 1020.1
20260510045118 46 71 2.6 6.1 0.00 0.00 0.00 84 1020.0
20260510044110 46 59 3.5 9.6 0.00 0.00 0.00 84 1020.0
20260510043125 46 180 3.5 9.6 0.00 0.00 0.00 85 1019.7
20260510042055 46 94 3.5 12.2 0.00 0.00 0.00 85 1019.7
20260510041055 46 60 4.3 12.2 0.00 0.00 0.00 85 1019.8
20260510040028 46 47 3.5 9.6 0.00 0.00 0.00 86 1019.9
20260510035029 46 183 3.5 11.3 0.00 0.00 0.00 86 1020.0
20260510032854 46 84 3.5 9.6 0.00 0.00 0.00 87 1020.0
20260510031844 46 102 3.5 7.8 0.00 0.00 0.00 87 1020.1
20260510030859 46 17 3.5 8.7 0.00 0.00 0.00 87 1020.2
20260510025825 46 116 3.5 8.7 0.00 0.00 0.00 88 1020.5
20260510023738 46 133 3.5 7.8 0.00 0.00 0.00 89 1020.5
20260510022729 47 86 3.5 7.8 0.00 0.00 0.00 88 1020.6
20260510021734 47 255 2.6 5.2 0.00 0.00 0.00 88 1020.5
20260510020745 47 150 2.6 7.8 0.00 0.00 0.00 88 1020.6
20260510015723 47 213 3.5 7.8 0.00 0.00 0.00 88 1020.6
20260510014748 47 108 2.6 7.8 0.00 0.00 0.00 89 1020.6
20260510013748 47 106 3.5 8.7 0.00 0.00 0.00 89 1020.5
20260510012757 47 84 3.5 13.9 0.00 0.00 0.00 89 1020.3
20260510011805 47 25 5.2 13.9 0.00 0.00 0.00 90 1020.1
20260510010826 47 28 4.3 10.4 0.00 0.00 0.00 90 1020.2
20260510005805 47 82 3.5 9.6 0.00 0.00 0.00 90 1020.4
20260510004827 47 191 3.5 8.7 0.00 0.00 0.00 90 1020.4
20260510003757 47 161 3.5 10.4 0.00 0.00 0.00 89 1020.6
20260510002749 47 41 5.2 10.4 0.00 0.00 0.00 89 1020.6
20260510001733 47 54 3.5 9.6 0.00 0.00 0.00 89 1020.7
20260510000746 48 318 4.3 9.6 0.00 0.00 0.00 88 1020.6
20260509235723 48 91 3.5 11.3 0.00 0.00 0.00 87 1020.6